[[{"header":{"parameterUnit":"m.s-1","parameterCategory":1,"la1":30.2991,"la2":30.254,"lo1":-89.0895,"lo2":-89.0444,"dx":0.0017,"dy":0.0017,"nx":28,"ny":28,"refTime":"2022-11-26T09:00:00:Z","depth":0,"parameterNumber":2,"parameterNumberName":"U-component_of_WINDS"},"data":[0,0,0,0,0,0,0,0,0,0,0,0,0,0,0,0,0,0,0,0,0,0,0,0,0,0,0,0,0,0,0,0,0,0,0,0,0,0,0,0,0,0,0,0,0,0,0,0,0,0,0,0,0,0,0,0,0,0,3.3556,3.3557,0,3.3669,3.367,3.3671,3.3655,3.3653,3.3651,3.365,3.3771,3.3776,3.3781,0,0,0,0,0,0,0,0,0,0,0,0,0,3.3334,3.3338,3.3556,3.3557,3.3558,3.3669,3.367,3.3672,3.3656,3.3653,3.3651,3.3649,3.377,3.3776,3.3782,0,0,0,0,0,0,0,0,0,0,0,0,0,3.3437,3.3339,3.3555,3.3563,3.3565,3.3668,3.367,3.3672,3.3656,3.3653,3.365,3.3648,3.3768,3.3775,3.3783,3.3886,0,0,3.3806,3.3809,0,0,0,0,0,0,0,0,3.3431,3.3445,3.3561,3.3563,3.3565,3.3645,3.3637,3.3744,3.3657,3.3622,3.365,3.3646,3.3732,3.3742,3.377,3.3892,3.3897,3.3806,3.3811,3.3814,3.3816,0,0,0,0,0,0,0,3.3424,3.344,3.3601,3.3563,3.3565,3.3564,3.3576,3.3657,3.3692,3.3625,3.3624,3.3637,3.3733,3.3763,3.3773,3.3899,3.3806,3.3813,3.3817,3.382,3.4117,3.412,0,0,0,0,0,0,3.3414,3.3434,3.3597,3.3604,3.349,3.3571,3.3583,3.3622,3.3691,3.3698,3.3639,3.3636,3.3751,3.3764,3.3777,3.3906,3.3814,3.3821,3.3825,3.4114,3.4118,3.4122,0,0,0,0,0,0,3.3409,3.3428,3.3592,3.3519,3.354,3.3577,3.3621,3.3626,3.3656,3.3702,3.3709,3.3663,3.375,3.3766,3.386,3.391,3.3824,3.3831,3.411,3.4115,3.412,3.4163,0,0,0,0,0,0,3.3402,3.3427,3.3464,3.352,3.3544,3.3671,3.3624,3.363,3.3668,3.3665,3.3726,3.3733,3.3749,3.3849,3.3867,3.3919,3.3837,3.4106,3.4112,3.4118,3.4158,3.4169,3.4179,0,0,0,0,0,3.3395,3.3472,3.3466,3.3486,3.3591,3.3674,3.3688,3.3702,3.3672,3.3712,3.3742,3.3731,3.3901,3.3858,3.3879,3.3934,3.4103,3.411,3.4118,3.4153,3.4167,3.4179,0,0,0,0,0,0,3.3422,3.3479,3.3473,3.3571,3.3618,3.3671,3.3721,3.3716,3.3773,3.3768,3.3785,3.3799,3.3895,3.3923,3.3875,3.404,3.3998,3.401,3.4018,3.4032,3.4042,3.4034,3.3843,0,0,0,0,0,3.344,3.35,3.3547,3.3629,3.3653,3.3683,3.372,3.3727,3.3777,3.3797,3.3833,3.3884,3.395,3.3992,3.4054,3.4162,3.4177,3.421,3.4221,3.4229,3.424,3.4303,3.4319,3.4147,3.4146,3.4146,0,0,3.3476,3.3515,3.3552,3.3636,3.3672,3.3738,3.37,3.3769,3.3819,3.3808,3.3899,3.3928,3.3986,3.4088,3.4135,3.4115,3.4291,3.4239,3.4245,3.4252,3.4313,3.4329,3.4344,3.4152,3.4151,3.415,0,0,3.3577,3.361,3.3684,3.3722,3.3779,3.3799,3.3817,3.3872,3.3891,3.3982,3.3976,3.4037,3.4147,3.419,3.4226,3.4347,3.4341,3.4367,3.4424,3.4485,3.4499,3.4511,3.4558,3.4574,3.4378,3.4378,3.4378,0,3.3616,3.3711,3.3723,3.3794,3.3833,3.3825,3.3902,3.3939,3.4014,3.4042,3.4018,3.416,3.4198,3.4312,3.4342,3.437,3.4394,3.4361,3.4496,3.4508,3.452,3.4564,3.4581,3.4381,3.438,3.438,3.438,0,3.3758,3.3824,3.3877,3.3949,3.3994,3.4067,3.4093,3.4138,3.4142,3.4166,3.4262,3.4308,3.4381,3.4408,3.4413,3.4524,3.4511,3.4491,3.445,3.4539,3.4581,3.4598,3.4385,3.4384,3.4383,3.4382,0,0,3.3877,3.3957,3.3976,3.401,3.4074,3.4127,3.4202,3.4272,3.4312,3.4365,3.443,3.4526,3.451,3.4551,3.4561,3.4614,3.4712,3.4589,3.4591,3.4613,3.4841,3.4857,3.4876,3.4707,3.471,3.4713,3.4837,0,3.3986,3.4116,3.4131,3.4249,3.4313,3.4309,3.4375,3.4423,3.4448,3.4508,3.4537,3.4605,3.4577,3.4602,3.4655,3.4688,3.4758,3.4679,3.4772,3.4775,3.4759,3.4897,3.4913,3.5028,3.4854,3.4856,3.4858,0,3.4129,3.4186,3.431,3.4368,3.4395,3.4454,3.4522,3.4578,3.4634,3.4649,3.4697,3.4701,3.4782,3.4737,3.4851,3.4798,3.4837,3.4859,3.4864,3.4875,3.4823,3.4914,3.5064,3.5082,3.4884,3.4882,3.488,0,3.4208,3.4315,3.4404,3.4433,3.4502,3.4544,3.4575,3.4628,3.4671,3.4731,3.476,3.4829,3.4868,3.4923,3.4947,3.4911,3.5062,3.5017,3.5079,3.5079,3.5112,3.5109,3.5273,3.5134,3.5133,3.5133,3.5133,0,3.4328,3.4405,3.444,3.4495,3.4583,3.4601,3.4687,3.4717,3.4765,3.4828,3.4829,3.4889,3.4916,3.4981,3.5001,3.5095,3.5112,3.5128,3.5133,3.5129,3.5128,3.5156,3.515,3.5138,3.5137,3.5136,3.5135,0,3.443,3.4457,3.4554,3.4612,3.4629,3.4691,3.4742,3.4797,3.4822,3.4903,3.4923,3.4964,3.5041,3.507,3.5164,3.5177,3.5287,3.5284,3.5267,3.5269,3.533,3.5325,3.5519,3.5547,3.5388,3.5389,3.539,0,3.4506,3.4565,3.463,3.4672,3.4704,3.4771,3.4815,3.4837,3.4883,3.4953,3.5001,3.5077,3.5139,3.5263,3.5303,3.5376,3.5377,3.544,3.5388,3.5383,3.5381,3.5377,3.5385,3.545,3.5451,3.5453,3.5454,0,3.4639,3.465,3.4712,3.478,3.4832,3.4887,3.4941,3.4976,3.5006,3.5058,3.5136,3.5185,3.5282,3.5359,3.5434,3.547,3.5469,3.547,3.5488,3.5486,3.5475,3.5484,3.5296,3.5465,3.5464,3.5463,3.5463,3.5462,3.4732,3.4786,3.4841,3.4911,3.4954,3.5004,3.506,3.5093,3.5158,3.5237,3.5247,3.5332,3.539,3.5492,3.5531,3.56,3.5583,3.5609,3.5616,3.5623,3.5629,3.5463,3.5613,3.5613,3.5613,3.5612,3.5612,0,3.4867,3.4903,3.4967,3.5042,3.5099,3.5091,3.5151,3.52,3.5274,3.5328,3.5389,3.5482,3.5557,3.5604,3.5681,3.5728,3.5729,3.5747,3.5745,3.5754,3.5638,3.5615,3.5745,3.5745,3.5745,3.5745,3.5745,3.5745,3.4944,3.5035,3.5054,3.5168,3.5204,3.5286,3.5321,3.537,3.5413,3.5515,3.5578,3.5607,3.566,3.5741,3.5812,3.5824,3.5853,3.5873,3.5884,3.5775,3.5762,3.5748,3.5727,3.5879,3.5879,3.5995,3.5996,3.5997]},{"header":{"parameterUnit":"m.s-1","parameterCategory":1,"la1":30.2991,"la2":30.254,"lo1":-89.0895,"lo2":-89.0444,"dx":0.0017,"dy":0.0017,"nx":28,"ny":28,"refTime":"2022-11-26T09:00:00:Z","depth":0,"parameterNumber":3,"parameterNumberName":"V-component_of_WINDS"},"data":[0,0,0,0,0,0,0,0,0,0,0,0,0,0,0,0,0,0,0,0,0,0,0,0,0,0,0,0,0,0,0,0,0,0,0,0,0,0,0,0,0,0,0,0,0,0,0,0,0,0,0,0,0,0,0,0,0,0,1.6371,1.6372,0,1.6464,1.6465,1.6466,1.6489,1.6488,1.6487,1.6487,1.658,1.6583,1.6586,0,0,0,0,0,0,0,0,0,0,0,0,0,1.621,1.6213,1.6371,1.6372,1.6373,1.6463,1.6465,1.6466,1.6489,1.6488,1.6487,1.6487,1.6579,1.6582,1.6586,0,0,0,0,0,0,0,0,0,0,0,0,0,1.6289,1.6213,1.6371,1.6395,1.6399,1.6463,1.6465,1.6466,1.6489,1.6488,1.6487,1.6486,1.6578,1.6582,1.6587,1.6632,0,0,1.66,1.6602,0,0,0,0,0,0,0,0,1.6284,1.6295,1.6391,1.6394,1.6397,1.6464,1.6442,1.6522,1.6489,1.6455,1.6487,1.6486,1.6542,1.6549,1.6569,1.6637,1.6641,1.6601,1.6604,1.6606,1.6607,0,0,0,0,0,0,0,1.6279,1.6291,1.6407,1.6392,1.6396,1.6401,1.6411,1.6457,1.6502,1.6457,1.6459,1.647,1.6543,1.6564,1.6571,1.6642,1.6601,1.6605,1.6608,1.6609,1.675,1.6751,0,0,0,0,0,0,1.6269,1.6286,1.6405,1.641,1.6338,1.6404,1.6416,1.6443,1.6502,1.651,1.6471,1.6471,1.6557,1.6566,1.6574,1.663,1.6605,1.661,1.6612,1.6749,1.675,1.6751,0,0,0,0,0,0,1.6266,1.628,1.6401,1.6349,1.6364,1.6408,1.6439,1.6446,1.6466,1.6512,1.6519,1.6484,1.6556,1.6568,1.6617,1.6634,1.6612,1.6616,1.6748,1.6749,1.6751,1.6743,0,0,0,0,0,0,1.6261,1.6278,1.6297,1.6349,1.6367,1.6444,1.644,1.6448,1.6474,1.6475,1.6526,1.6534,1.6557,1.661,1.6622,1.664,1.6619,1.6746,1.6748,1.675,1.6742,1.6744,1.6746,0,0,0,0,0,1.6255,1.6292,1.6298,1.6312,1.6392,1.6445,1.6455,1.6481,1.6476,1.6494,1.6523,1.6532,1.663,1.6615,1.6628,1.6648,1.6745,1.6748,1.675,1.6741,1.6744,1.6746,0,0,0,0,0,0,1.6241,1.6299,1.6307,1.6361,1.6398,1.6448,1.6473,1.6483,1.6522,1.6521,1.6551,1.6563,1.661,1.6634,1.6616,1.6694,1.6687,1.6692,1.6677,1.6679,1.6681,1.6674,1.6623,0,0,0,0,0,1.6244,1.6283,1.6331,1.6374,1.6392,1.6429,1.6453,1.647,1.6509,1.6524,1.6557,1.6593,1.6632,1.6657,1.6695,1.6746,1.6756,1.6765,1.6767,1.6768,1.6772,1.6798,1.6802,1.6758,1.6758,1.6758,0,0,1.6251,1.6288,1.631,1.6372,1.6403,1.6441,1.6442,1.6483,1.6511,1.653,1.6579,1.6604,1.6646,1.6695,1.6719,1.6717,1.6786,1.6771,1.6772,1.6775,1.6801,1.6805,1.6809,1.676,1.676,1.6759,0,0,1.6283,1.6315,1.6354,1.6384,1.6429,1.6453,1.6462,1.6511,1.6528,1.6577,1.6592,1.6625,1.6692,1.6721,1.6744,1.6784,1.6793,1.6796,1.6806,1.6831,1.6834,1.6837,1.685,1.6854,1.6799,1.6799,1.6799,0,1.6286,1.6345,1.6372,1.6412,1.6438,1.6457,1.6495,1.6523,1.6578,1.6595,1.6592,1.6675,1.6705,1.676,1.6769,1.6788,1.6798,1.679,1.6832,1.6835,1.6838,1.6851,1.6856,1.6799,1.6799,1.6799,1.6799,0,1.6345,1.6385,1.6411,1.6464,1.6493,1.6532,1.6563,1.6589,1.6602,1.6626,1.6674,1.6711,1.6756,1.677,1.6784,1.6827,1.6824,1.6826,1.682,1.6842,1.6854,1.6859,1.6799,1.6799,1.6799,1.6799,0,0,1.6372,1.6438,1.6447,1.647,1.6521,1.6552,1.659,1.6635,1.6655,1.6692,1.6724,1.6778,1.678,1.6806,1.6824,1.6845,1.6872,1.6845,1.6846,1.6847,1.6919,1.6917,1.6922,1.6878,1.6879,1.688,1.6915,0,1.6409,1.648,1.6504,1.6562,1.6598,1.6615,1.6648,1.6682,1.6704,1.6737,1.6762,1.68,1.68,1.6815,1.6838,1.6864,1.6887,1.6862,1.6907,1.6908,1.6895,1.6929,1.6927,1.6958,1.692,1.6921,1.6922,0,1.6463,1.65,1.6561,1.6605,1.6621,1.6651,1.6692,1.6724,1.6761,1.6776,1.6804,1.6819,1.6858,1.6849,1.6902,1.6885,1.6904,1.6919,1.6921,1.6926,1.6916,1.6933,1.6969,1.6973,1.6929,1.6929,1.6928,0,1.6475,1.654,1.6585,1.6604,1.6657,1.6677,1.6699,1.6736,1.676,1.6796,1.6811,1.6851,1.6872,1.6901,1.6925,1.6917,1.6975,1.6969,1.6987,1.6986,1.6998,1.6997,1.7037,1.7012,1.7012,1.7012,1.7011,0,1.6514,1.655,1.659,1.6618,1.6658,1.6685,1.6724,1.6747,1.6779,1.681,1.6827,1.6855,1.6886,1.6917,1.6936,1.6976,1.6986,1.6997,1.7002,1.6996,1.6994,1.7009,1.7007,1.7013,1.7013,1.7012,1.7012,0,1.6534,1.6563,1.6612,1.6657,1.6669,1.6697,1.6735,1.6761,1.6783,1.6822,1.6832,1.6867,1.6905,1.6932,1.6981,1.6993,1.7035,1.704,1.7023,1.7025,1.7041,1.7038,1.7091,1.7098,1.7069,1.7069,1.7069,0,1.6557,1.6585,1.6633,1.6655,1.6677,1.6713,1.6737,1.6764,1.6788,1.6832,1.6852,1.6891,1.6924,1.6983,1.7012,1.7048,1.7054,1.7069,1.7059,1.7051,1.7052,1.705,1.7052,1.7071,1.7071,1.7071,1.7071,0,1.6593,1.6606,1.6641,1.668,1.6709,1.6741,1.6774,1.679,1.6822,1.6848,1.6888,1.6913,1.6962,1.7,1.7039,1.706,1.707,1.7074,1.708,1.7073,1.7062,1.7067,1.7026,1.7073,1.7073,1.7072,1.7072,1.7072,1.6615,1.664,1.6677,1.6715,1.6742,1.6771,1.6797,1.6822,1.6856,1.6898,1.6911,1.6951,1.6985,1.7039,1.7061,1.7091,1.709,1.7099,1.7101,1.7103,1.7102,1.7057,1.7098,1.7098,1.7098,1.7098,1.7098,0,1.6651,1.6676,1.671,1.6755,1.6784,1.6791,1.6826,1.685,1.6885,1.6916,1.6948,1.6991,1.7027,1.7058,1.7095,1.7113,1.7118,1.7122,1.712,1.7125,1.7101,1.7092,1.7117,1.7117,1.7117,1.7117,1.7117,1.7117,1.6674,1.6716,1.6732,1.6787,1.6811,1.685,1.687,1.6896,1.6921,1.6969,1.6999,1.7019,1.7049,1.7088,1.7121,1.7129,1.7141,1.7143,1.7152,1.7129,1.7127,1.7125,1.7116,1.7146,1.7146,1.7173,1.7173,1.7174]}]]